Location: Unspecified
(0.0000°N, 0.0000°E)
Time: 17:57:10
(UTC+00:00)

Vanguard 3 - Pass Details

Date: 27 September 2023
Orbit: 507 x 3241 km, 33.3° (Epoch: 29 November)

Event Time Altitude Azimuth Distance (km) Brightness Sun altitude
Rises 07:37:31 0° 230° (SW) 4,528 10.6 26.6°
Reaches altitude 10° 07:44:05 10° 197° (SSW) 4,284 10.8 28.2°
Maximum altitude 07:47:12 11° 182° (S) 4,501 11.0 29.0°
Drops below altitude 10° 07:50:42 10° 166° (SSE) 4,930 11.4 29.9°
Sets 08:00:56 0° 137° (SE) 6,705 12.4 32.4°
